owner,sensor,date,latitude,longitude,vertical_datum,sea_water_practical_salinity,qcFlag 
NERRS,ioos:station:NOAA.NERRS:wkbfrwq:1,2017-08-01T00:45:00Z,30.4162,-87.8228,2.23,0.1,1111122 
NERRS,ioos:station:NOAA.NERRS:wkbfrwq:1,2017-08-01T01:45:00Z,30.4162,-87.8228,2.26,0.1,1111122 
NERRS,ioos:station:NOAA.NERRS:wkbfrwq:1,2017-08-01T02:45:00Z,30.4162,-87.8228,2.28,0.1,1111122 
NERRS,ioos:station:NOAA.NERRS:wkbfrwq:1,2017-08-01T03:45:00Z,30.4162,-87.8228,2.3,0.1,1111122 
NERRS,ioos:station:NOAA.NERRS:wkbfrwq:1,2017-08-01T04:45:00Z,30.4162,-87.8228,2.32,0.1,1111122 
NERRS,ioos:station:NOAA.NERRS:wkbfrwq:1,2017-08-01T05:45:00Z,30.4162,-87.8228,2.34,0.1,1111122 
NERRS,ioos:station:NOAA.NERRS:wkbfrwq:1,2017-08-01T06:45:00Z,30.4162,-87.8228,2.36,0.1,1111122 
NERRS,ioos:station:NOAA.NERRS:wkbfrwq:1,2017-08-01T07:45:00Z,30.4162,-87.8228,2.38,0.1,1111122 
NERRS,ioos:station:NOAA.NERRS:wkbfrwq:1,2017-08-01T08:45:00Z,30.4162,-87.8228,2.42,0.2,1111122 
NERRS,ioos:station:NOAA.NERRS:wkbfrwq:1,2017-08-01T09:45:00Z,30.4162,-87.8228,2.45,0.2,1111122 
NERRS,ioos:station:NOAA.NERRS:wkbfrwq:1,2017-08-01T10:45:00Z,30.4162,-87.8228,2.48,0.2,1111122 
NERRS,ioos:station:NOAA.NERRS:wkbfrwq:1,2017-08-01T11:45:00Z,30.4162,-87.8228,2.5,0.2,1111122 
NERRS,ioos:station:NOAA.NERRS:wkbfrwq:1,2017-08-01T12:45:00Z,30.4162,-87.8228,2.51,0.2,1111122 
NERRS,ioos:station:NOAA.NERRS:wkbfrwq:1,2017-08-01T13:45:00Z,30.4162,-87.8228,2.51,0.2,1111122 
NERRS,ioos:station:NOAA.NERRS:wkbfrwq:1,2017-08-01T14:45:00Z,30.4162,-87.8228,2.5,0.2,1111122 
NERRS,ioos:station:NOAA.NERRS:wkbfrwq:1,2017-08-01T15:45:00Z,30.4162,-87.8228,2.47,0.2,1111122 
NERRS,ioos:station:NOAA.NERRS:wkbfrwq:1,2017-08-01T16:45:00Z,30.4162,-87.8228,2.42,0.1,1111122 
NERRS,ioos:station:NOAA.NERRS:wkbfrwq:1,2017-08-01T18:45:00Z,30.4162,-87.8228,2.33,0.1,1111122 
NERRS,ioos:station:NOAA.NERRS:wkbfrwq:1,2017-08-01T19:45:00Z,30.4162,-87.8228,2.3,0.1,1111122 
NERRS,ioos:station:NOAA.NERRS:wkbfrwq:1,2017-08-01T21:45:00Z,30.4162,-87.8228,2.2,0.1,1111122 
NERRS,ioos:station:NOAA.NERRS:wkbfrwq:1,2017-08-02T00:45:00Z,30.4162,-87.8228,2.2,0.1,1111122 
NERRS,ioos:station:NOAA.NERRS:wkbfrwq:1,2017-08-02T01:45:00Z,30.4162,-87.8228,2.21,0.1,1111122 
NERRS,ioos:station:NOAA.NERRS:wkbfrwq:1,2017-08-02T02:45:00Z,30.4162,-87.8228,2.23,0.1,1111122 
NERRS,ioos:station:NOAA.NERRS:wkbfrwq:1,2017-08-02T03:45:00Z,30.4162,-87.8228,2.27,0.1,1111122 
NERRS,ioos:station:NOAA.NERRS:wkbfrwq:1,2017-08-02T04:45:00Z,30.4162,-87.8228,2.32,0.1,1111122 
NERRS,ioos:station:NOAA.NERRS:wkbfrwq:1,2017-08-02T05:45:00Z,30.4162,-87.8228,2.35,0.1,1111122 
NERRS,ioos:station:NOAA.NERRS:wkbfrwq:1,2017-08-02T07:45:00Z,30.4162,-87.8228,2.44,0.2,1111122 
NERRS,ioos:station:NOAA.NERRS:wkbfrwq:1,2017-08-02T08:45:00Z,30.4162,-87.8228,2.49,0.3,1111122 
NERRS,ioos:station:NOAA.NERRS:wkbfrwq:1,2017-08-02T09:45:00Z,30.4162,-87.8228,2.52,0.3,1111122 
NERRS,ioos:station:NOAA.NERRS:wkbfrwq:1,2017-08-02T10:45:00Z,30.4162,-87.8228,2.55,0.3,1111122 
NERRS,ioos:station:NOAA.NERRS:wkbfrwq:1,2017-08-02T11:45:00Z,30.4162,-87.8228,2.57,0.3,1111122 
NERRS,ioos:station:NOAA.NERRS:wkbfrwq:1,2017-08-02T12:45:00Z,30.4162,-87.8228,2.57,0.3,1111122 
NERRS,ioos:station:NOAA.NERRS:wkbfrwq:1,2017-08-02T14:45:00Z,30.4162,-87.8228,2.5,0.2,1111122 
NERRS,ioos:station:NOAA.NERRS:wkbfrwq:1,2017-08-02T16:45:00Z,30.4162,-87.8228,2.46,0.2,1111122 
NERRS,ioos:station:NOAA.NERRS:wkbfrwq:1,2017-08-02T17:45:00Z,30.4162,-87.8228,2.41,0.2,1111122 
NERRS,ioos:station:NOAA.NERRS:wkbfrwq:1,2017-08-02T18:45:00Z,30.4162,-87.8228,2.36,0.2,1111122 
NERRS,ioos:station:NOAA.NERRS:wkbfrwq:1,2017-08-02T19:45:00Z,30.4162,-87.8228,2.31,0.2,1111122 
NERRS,ioos:station:NOAA.NERRS:wkbfrwq:1,2017-08-02T23:45:00Z,30.4162,-87.8228,2.16,0.1,1111122 
NERRS,ioos:station:NOAA.NERRS:wkbfrwq:1,2017-08-03T04:45:00Z,30.4162,-87.8228,2.35,1.4,1111122 
NERRS,ioos:station:NOAA.NERRS:wkbfrwq:1,2017-08-03T06:45:00Z,30.4162,-87.8228,2.44,1.7,1111122 
NERRS,ioos:station:NOAA.NERRS:wkbfrwq:1,2017-08-03T08:45:00Z,30.4162,-87.8228,2.48,1.6,1111122 
NERRS,ioos:station:NOAA.NERRS:wkbfrwq:1,2017-08-03T09:45:00Z,30.4162,-87.8228,2.5,1.6,1111122 
NERRS,ioos:station:NOAA.NERRS:wkbfrwq:1,2017-08-03T10:45:00Z,30.4162,-87.8228,2.53,1.8,1111122 
NERRS,ioos:station:NOAA.NERRS:wkbfrwq:1,2017-08-03T11:45:00Z,30.4162,-87.8228,2.55,1.8,1111122 
NERRS,ioos:station:NOAA.NERRS:wkbfrwq:1,2017-08-03T12:45:00Z,30.4162,-87.8228,2.53,1.9,1111122 
NERRS,ioos:station:NOAA.NERRS:wkbfrwq:1,2017-08-03T13:45:00Z,30.4162,-87.8228,2.55,2.7,1111122 
NERRS,ioos:station:NOAA.NERRS:wkbfrwq:1,2017-08-03T14:45:00Z,30.4162,-87.8228,2.55,3.5,1111122 
NERRS,ioos:station:NOAA.NERRS:wkbfrwq:1,2017-08-03T16:45:00Z,30.4162,-87.8228,2.5,2.6,1111122 
NERRS,ioos:station:NOAA.NERRS:wkbfrwq:1,2017-08-03T17:45:00Z,30.4162,-87.8228,2.46,4.9,1111122 
NERRS,ioos:station:NOAA.NERRS:wkbfrwq:1,2017-08-03T20:45:00Z,30.4162,-87.8228,2.29,2.0,1111122 
NERRS,ioos:station:NOAA.NERRS:wkbfrwq:1,2017-08-03T23:45:00Z,30.4162,-87.8228,2.17,3.6,1111122 
NERRS,ioos:station:NOAA.NERRS:wkbfrwq:1,2017-08-04T08:45:00Z,30.4162,-87.8228,2.53,3.1,1111122 
NERRS,ioos:station:NOAA.NERRS:wkbfrwq:1,2017-08-04T10:45:00Z,30.4162,-87.8228,2.68,3.3,1111122 
NERRS,ioos:station:NOAA.NERRS:wkbfrwq:1,2017-08-04T12:45:00Z,30.4162,-87.8228,2.63,3.2,1111122 
NERRS,ioos:station:NOAA.NERRS:wkbfrwq:1,2017-08-04T20:45:00Z,30.4162,-87.8228,2.32,0.2,1111122 
NERRS,ioos:station:NOAA.NERRS:wkbfrwq:1,2017-08-04T21:45:00Z,30.4162,-87.8228,2.37,0.1,1111122 
NERRS,ioos:station:NOAA.NERRS:wkbfrwq:1,2017-08-05T04:45:00Z,30.4162,-87.8228,2.24,0.1,1111122 
NERRS,ioos:station:NOAA.NERRS:wkbfrwq:1,2017-08-05T05:45:00Z,30.4162,-87.8228,2.32,0.1,1111122 
NERRS,ioos:station:NOAA.NERRS:wkbfrwq:1,2017-08-05T06:45:00Z,30.4162,-87.8228,2.4,0.1,1111122 
NERRS,ioos:station:NOAA.NERRS:wkbfrwq:1,2017-08-05T07:45:00Z,30.4162,-87.8228,2.38,0.1,1111122 
NERRS,ioos:station:NOAA.NERRS:wkbfrwq:1,2017-08-05T08:45:00Z,30.4162,-87.8228,2.39,0.1,1111122 
NERRS,ioos:station:NOAA.NERRS:wkbfrwq:1,2017-08-05T10:45:00Z,30.4162,-87.8228,2.49,0.1,1111122 
NERRS,ioos:station:NOAA.NERRS:wkbfrwq:1,2017-08-05T11:45:00Z,30.4162,-87.8228,2.53,0.1,1111122 
NERRS,ioos:station:NOAA.NERRS:wkbfrwq:1,2017-08-05T12:45:00Z,30.4162,-87.8228,2.58,0.1,1111122 
NERRS,ioos:station:NOAA.NERRS:wkbfrwq:1,2017-08-05T13:45:00Z,30.4162,-87.8228,2.62,0.1,1111122 
NERRS,ioos:station:NOAA.NERRS:wkbfrwq:1,2017-08-05T15:45:00Z,30.4162,-87.8228,2.66,0.1,1111122 
NERRS,ioos:station:NOAA.NERRS:wkbfrwq:1,2017-08-05T16:45:00Z,30.4162,-87.8228,2.63,0.1,1111122 
NERRS,ioos:station:NOAA.NERRS:wkbfrwq:1,2017-08-05T17:45:00Z,30.4162,-87.8228,2.58,0.1,1111122 
NERRS,ioos:station:NOAA.NERRS:wkbfrwq:1,2017-08-05T18:45:00Z,30.4162,-87.8228,2.52,0.1,1111122 
NERRS,ioos:station:NOAA.NERRS:wkbfrwq:1,2017-08-05T19:45:00Z,30.4162,-87.8228,2.45,0.1,1111122 
NERRS,ioos:station:NOAA.NERRS:wkbfrwq:1,2017-08-05T20:45:00Z,30.4162,-87.8228,2.36,0.1,1111122 
NERRS,ioos:station:NOAA.NERRS:wkbfrwq:1,2017-08-05T21:45:00Z,30.4162,-87.8228,2.28,0.1,1111122 
NERRS,ioos:station:NOAA.NERRS:wkbfrwq:1,2017-08-06T02:45:00Z,30.4162,-87.8228,2.11,0.1,1111122 
NERRS,ioos:station:NOAA.NERRS:wkbfrwq:1,2017-08-06T03:45:00Z,30.4162,-87.8228,2.12,0.1,1111122 
NERRS,ioos:station:NOAA.NERRS:wkbfrwq:1,2017-08-06T04:45:00Z,30.4162,-87.8228,2.16,0.1,1111122 
NERRS,ioos:station:NOAA.NERRS:wkbfrwq:1,2017-08-06T05:45:00Z,30.4162,-87.8228,2.21,0.1,1111122 
NERRS,ioos:station:NOAA.NERRS:wkbfrwq:1,2017-08-06T08:45:00Z,30.4162,-87.8228,2.39,0.1,1111122 
NERRS,ioos:station:NOAA.NERRS:wkbfrwq:1,2017-08-06T09:45:00Z,30.4162,-87.8228,2.43,0.1,1111122 
NERRS,ioos:station:NOAA.NERRS:wkbfrwq:1,2017-08-06T10:45:00Z,30.4162,-87.8228,2.49,0.1,1111122 
NERRS,ioos:station:NOAA.NERRS:wkbfrwq:1,2017-08-06T11:45:00Z,30.4162,-87.8228,2.54,0.1,1111122 
NERRS,ioos:station:NOAA.NERRS:wkbfrwq:1,2017-08-06T12:45:00Z,30.4162,-87.8228,2.61,0.1,1111122 
NERRS,ioos:station:NOAA.NERRS:wkbfrwq:1,2017-08-06T13:45:00Z,30.4162,-87.8228,2.66,0.1,1111122 
NERRS,ioos:station:NOAA.NERRS:wkbfrwq:1,2017-08-06T14:45:00Z,30.4162,-87.8228,2.68,0.2,1111122 
NERRS,ioos:station:NOAA.NERRS:wkbfrwq:1,2017-08-06T15:45:00Z,30.4162,-87.8228,2.68,0.1,1111122 
NERRS,ioos:station:NOAA.NERRS:wkbfrwq:1,2017-08-06T16:45:00Z,30.4162,-87.8228,2.65,0.1,1111122 
NERRS,ioos:station:NOAA.NERRS:wkbfrwq:1,2017-08-06T17:45:00Z,30.4162,-87.8228,2.62,0.1,1111122 
NERRS,ioos:station:NOAA.NERRS:wkbfrwq:1,2017-08-06T18:45:00Z,30.4162,-87.8228,2.57,0.1,1111122 
NERRS,ioos:station:NOAA.NERRS:wkbfrwq:1,2017-08-06T19:45:00Z,30.4162,-87.8228,2.5,0.1,1111122 
NERRS,ioos:station:NOAA.NERRS:wkbfrwq:1,2017-08-06T20:45:00Z,30.4162,-87.8228,2.42,0.1,1111122 
NERRS,ioos:station:NOAA.NERRS:wkbfrwq:1,2017-08-06T21:45:00Z,30.4162,-87.8228,2.34,0.1,1111122 
NERRS,ioos:station:NOAA.NERRS:wkbfrwq:1,2017-08-06T22:45:00Z,30.4162,-87.8228,2.27,0.1,1111122 
NERRS,ioos:station:NOAA.NERRS:wkbfrwq:1,2017-08-06T23:45:00Z,30.4162,-87.8228,2.23,0.1,1111122 
NERRS,ioos:station:NOAA.NERRS:wkbfrwq:1,2017-08-07T00:45:00Z,30.4162,-87.8228,2.19,0.1,1111122 
NERRS,ioos:station:NOAA.NERRS:wkbfrwq:1,2017-08-07T01:45:00Z,30.4162,-87.8228,2.16,0.1,1111122 
NERRS,ioos:station:NOAA.NERRS:wkbfrwq:1,2017-08-07T02:45:00Z,30.4162,-87.8228,2.18,0.1,1111122 
NERRS,ioos:station:NOAA.NERRS:wkbfrwq:1,2017-08-07T03:45:00Z,30.4162,-87.8228,2.2,0.1,1111122 
NERRS,ioos:station:NOAA.NERRS:wkbfrwq:1,2017-08-07T04:45:00Z,30.4162,-87.8228,2.23,0.1,1111122 
NERRS,ioos:station:NOAA.NERRS:wkbfrwq:1,2017-08-07T05:45:00Z,30.4162,-87.8228,2.27,0.1,1111122 
NERRS,ioos:station:NOAA.NERRS:wkbfrwq:1,2017-08-07T06:45:00Z,30.4162,-87.8228,2.32,0.1,1111122 
NERRS,ioos:station:NOAA.NERRS:wkbfrwq:1,2017-08-07T07:45:00Z,30.4162,-87.8228,2.38,0.1,1111122 
NERRS,ioos:station:NOAA.NERRS:wkbfrwq:1,2017-08-07T08:45:00Z,30.4162,-87.8228,2.46,0.2,1111122 
NERRS,ioos:station:NOAA.NERRS:wkbfrwq:1,2017-08-07T09:45:00Z,30.4162,-87.8228,2.51,0.2,1111122 
NERRS,ioos:station:NOAA.NERRS:wkbfrwq:1,2017-08-07T10:45:00Z,30.4162,-87.8228,2.53,0.2,1111122 
NERRS,ioos:station:NOAA.NERRS:wkbfrwq:1,2017-08-07T11:45:00Z,30.4162,-87.8228,2.54,0.2,1111122 
NERRS,ioos:station:NOAA.NERRS:wkbfrwq:1,2017-08-07T12:45:00Z,30.4162,-87.8228,2.59,0.2,1111122 
NERRS,ioos:station:NOAA.NERRS:wkbfrwq:1,2017-08-07T13:45:00Z,30.4162,-87.8228,2.66,0.6,1111122 
NERRS,ioos:station:NOAA.NERRS:wkbfrwq:1,2017-08-07T14:45:00Z,30.4162,-87.8228,2.7,1.0,1111122 
NERRS,ioos:station:NOAA.NERRS:wkbfrwq:1,2017-08-07T15:45:00Z,30.4162,-87.8228,2.73,0.9,1111122 
NERRS,ioos:station:NOAA.NERRS:wkbfrwq:1,2017-08-07T16:45:00Z,30.4162,-87.8228,2.72,0.9,1111122 
NERRS,ioos:station:NOAA.NERRS:wkbfrwq:1,2017-08-07T17:45:00Z,30.4162,-87.8228,2.69,0.7,1111122 
NERRS,ioos:station:NOAA.NERRS:wkbfrwq:1,2017-08-07T18:45:00Z,30.4162,-87.8228,2.63,0.3,1111122 
NERRS,ioos:station:NOAA.NERRS:wkbfrwq:1,2017-08-07T19:45:00Z,30.4162,-87.8228,2.56,0.2,1111122 
NERRS,ioos:station:NOAA.NERRS:wkbfrwq:1,2017-08-07T20:45:00Z,30.4162,-87.8228,2.48,0.1,1111122 
NERRS,ioos:station:NOAA.NERRS:wkbfrwq:1,2017-08-07T21:45:00Z,30.4162,-87.8228,2.4,0.1,1111122 
NERRS,ioos:station:NOAA.NERRS:wkbfrwq:1,2017-08-07T22:45:00Z,30.4162,-87.8228,2.34,0.1,1111122 
NERRS,ioos:station:NOAA.NERRS:wkbfrwq:1,2017-08-07T23:45:00Z,30.4162,-87.8228,2.31,0.1,1111122 
NERRS,ioos:station:NOAA.NERRS:wkbfrwq:1,2017-08-08T00:45:00Z,30.4162,-87.8228,2.26,0.1,1111122 
NERRS,ioos:station:NOAA.NERRS:wkbfrwq:1,2017-08-08T01:45:00Z,30.4162,-87.8228,2.22,0.1,1111122 
NERRS,ioos:station:NOAA.NERRS:wkbfrwq:1,2017-08-08T02:45:00Z,30.4162,-87.8228,2.19,0.1,1111122 
NERRS,ioos:station:NOAA.NERRS:wkbfrwq:1,2017-08-08T03:45:00Z,30.4162,-87.8228,2.18,0.1,1111122 
NERRS,ioos:station:NOAA.NERRS:wkbfrwq:1,2017-08-08T04:45:00Z,30.4162,-87.8228,2.17,0.1,1111122 
NERRS,ioos:station:NOAA.NERRS:wkbfrwq:1,2017-08-08T05:45:00Z,30.4162,-87.8228,2.17,0.1,1111122 
NERRS,ioos:station:NOAA.NERRS:wkbfrwq:1,2017-08-08T06:45:00Z,30.4162,-87.8228,2.2,0.1,1111122 
NERRS,ioos:station:NOAA.NERRS:wkbfrwq:1,2017-08-08T07:45:00Z,30.4162,-87.8228,2.18,0.1,1111122 
NERRS,ioos:station:NOAA.NERRS:wkbfrwq:1,2017-08-08T08:45:00Z,30.4162,-87.8228,2.2,0.1,1111122 
NERRS,ioos:station:NOAA.NERRS:wkbfrwq:1,2017-08-08T09:45:00Z,30.4162,-87.8228,2.32,0.1,1111122 
NERRS,ioos:station:NOAA.NERRS:wkbfrwq:1,2017-08-08T10:45:00Z,30.4162,-87.8228,2.44,0.3,1111122 
NERRS,ioos:station:NOAA.NERRS:wkbfrwq:1,2017-08-08T11:45:00Z,30.4162,-87.8228,2.48,0.3,1111122 
NERRS,ioos:station:NOAA.NERRS:wkbfrwq:1,2017-08-08T12:45:00Z,30.4162,-87.8228,2.5,0.4,1111122 
NERRS,ioos:station:NOAA.NERRS:wkbfrwq:1,2017-08-08T13:45:00Z,30.4162,-87.8228,2.57,0.5,1111122 
NERRS,ioos:station:NOAA.NERRS:wkbfrwq:1,2017-08-08T14:45:00Z,30.4162,-87.8228,2.66,0.6,1111122 
NERRS,ioos:station:NOAA.NERRS:wkbfrwq:1,2017-08-08T15:45:00Z,30.4162,-87.8228,2.72,0.7,1111122 
NERRS,ioos:station:NOAA.NERRS:wkbfrwq:1,2017-08-08T16:45:00Z,30.4162,-87.8228,2.7,0.8,1111122 
NERRS,ioos:station:NOAA.NERRS:wkbfrwq:1,2017-08-08T17:45:00Z,30.4162,-87.8228,2.66,0.6,1111122 
NERRS,ioos:station:NOAA.NERRS:wkbfrwq:1,2017-08-08T18:45:00Z,30.4162,-87.8228,2.65,0.5,1111122 
NERRS,ioos:station:NOAA.NERRS:wkbfrwq:1,2017-08-08T19:45:00Z,30.4162,-87.8228,2.6,0.5,1111122 
NERRS,ioos:station:NOAA.NERRS:wkbfrwq:1,2017-08-08T20:45:00Z,30.4162,-87.8228,2.52,0.2,1111122 
NERRS,ioos:station:NOAA.NERRS:wkbfrwq:1,2017-08-08T21:45:00Z,30.4162,-87.8228,2.43,0.1,1111122 
NERRS,ioos:station:NOAA.NERRS:wkbfrwq:1,2017-08-08T22:45:00Z,30.4162,-87.8228,2.35,0.1,1111122 
NERRS,ioos:station:NOAA.NERRS:wkbfrwq:1,2017-08-08T23:45:00Z,30.4162,-87.8228,2.3,0.1,1111122 
NERRS,ioos:station:NOAA.NERRS:wkbfrwq:1,2017-08-09T00:45:00Z,30.4162,-87.8228,2.27,0.1,1111122 
NERRS,ioos:station:NOAA.NERRS:wkbfrwq:1,2017-08-09T01:45:00Z,30.4162,-87.8228,2.23,0.1,1111122 
NERRS,ioos:station:NOAA.NERRS:wkbfrwq:1,2017-08-09T02:45:00Z,30.4162,-87.8228,2.2,0.1,1111122 
NERRS,ioos:station:NOAA.NERRS:wkbfrwq:1,2017-08-09T03:45:00Z,30.4162,-87.8228,2.17,0.1,1111122 
NERRS,ioos:station:NOAA.NERRS:wkbfrwq:1,2017-08-09T04:45:00Z,30.4162,-87.8228,2.19,0.1,1111122 
NERRS,ioos:station:NOAA.NERRS:wkbfrwq:1,2017-08-09T05:45:00Z,30.4162,-87.8228,2.21,0.1,1111122 
NERRS,ioos:station:NOAA.NERRS:wkbfrwq:1,2017-08-09T06:45:00Z,30.4162,-87.8228,2.25,0.1,1111122 
NERRS,ioos:station:NOAA.NERRS:wkbfrwq:1,2017-08-09T07:45:00Z,30.4162,-87.8228,2.31,0.7,1111122 
NERRS,ioos:station:NOAA.NERRS:wkbfrwq:1,2017-08-09T08:45:00Z,30.4162,-87.8228,2.36,0.4,1111122 
NERRS,ioos:station:NOAA.NERRS:wkbfrwq:1,2017-08-09T09:45:00Z,30.4162,-87.8228,2.4,1.3,1111122 
NERRS,ioos:station:NOAA.NERRS:wkbfrwq:1,2017-08-09T10:45:00Z,30.4162,-87.8228,2.43,2.9,1111122 
NERRS,ioos:station:NOAA.NERRS:wkbfrwq:1,2017-08-09T11:45:00Z,30.4162,-87.8228,2.46,3.0,1111122 
NERRS,ioos:station:NOAA.NERRS:wkbfrwq:1,2017-08-09T12:45:00Z,30.4162,-87.8228,2.51,3.1,1111122 
NERRS,ioos:station:NOAA.NERRS:wkbfrwq:1,2017-08-09T13:45:00Z,30.4162,-87.8228,2.55,3.2,1111122 
NERRS,ioos:station:NOAA.NERRS:wkbfrwq:1,2017-08-09T14:45:00Z,30.4162,-87.8228,2.6,3.6,1111122 
NERRS,ioos:station:NOAA.NERRS:wkbfrwq:1,2017-08-09T15:45:00Z,30.4162,-87.8228,2.64,3.9,1111122 
NERRS,ioos:station:NOAA.NERRS:wkbfrwq:1,2017-08-09T22:45:00Z,30.4162,-87.8228,2.43,2.6,1111122 
NERRS,ioos:station:NOAA.NERRS:wkbfrwq:1,2017-08-09T23:45:00Z,30.4162,-87.8228,2.37,1.1,1111122 
NERRS,ioos:station:NOAA.NERRS:wkbfrwq:1,2017-08-10T00:45:00Z,30.4162,-87.8228,2.34,1.2,1111122 
NERRS,ioos:station:NOAA.NERRS:wkbfrwq:1,2017-08-10T01:45:00Z,30.4162,-87.8228,2.29,1.3,1111122 
NERRS,ioos:station:NOAA.NERRS:wkbfrwq:1,2017-08-10T02:45:00Z,30.4162,-87.8228,2.29,1.8,1111122 
NERRS,ioos:station:NOAA.NERRS:wkbfrwq:1,2017-08-10T03:45:00Z,30.4162,-87.8228,2.28,3.8,1111122 
NERRS,ioos:station:NOAA.NERRS:wkbfrwq:1,2017-08-10T04:45:00Z,30.4162,-87.8228,2.28,2.9,1111122 
NERRS,ioos:station:NOAA.NERRS:wkbfrwq:1,2017-08-10T05:45:00Z,30.4162,-87.8228,2.29,3.0,1111122 
NERRS,ioos:station:NOAA.NERRS:wkbfrwq:1,2017-08-10T06:45:00Z,30.4162,-87.8228,2.31,3.2,1111122 
NERRS,ioos:station:NOAA.NERRS:wkbfrwq:1,2017-08-10T07:45:00Z,30.4162,-87.8228,2.37,2.4,1111122 
NERRS,ioos:station:NOAA.NERRS:wkbfrwq:1,2017-08-10T08:45:00Z,30.4162,-87.8228,2.4,2.7,1111122 
NERRS,ioos:station:NOAA.NERRS:wkbfrwq:1,2017-08-10T09:45:00Z,30.4162,-87.8228,2.39,3.3,1111122 
NERRS,ioos:station:NOAA.NERRS:wkbfrwq:1,2017-08-10T10:45:00Z,30.4162,-87.8228,2.39,4.3,1111122 
NERRS,ioos:station:NOAA.NERRS:wkbfrwq:1,2017-08-10T11:45:00Z,30.4162,-87.8228,2.42,3.8,1111122 
NERRS,ioos:station:NOAA.NERRS:wkbfrwq:1,2017-08-10T12:45:00Z,30.4162,-87.8228,2.44,4.3,1111122 
NERRS,ioos:station:NOAA.NERRS:wkbfrwq:1,2017-08-10T13:45:00Z,30.4162,-87.8228,2.48,4.0,1111122 
NERRS,ioos:station:NOAA.NERRS:wkbfrwq:1,2017-08-10T14:45:00Z,30.4162,-87.8228,2.5,3.9,1111122 
NERRS,ioos:station:NOAA.NERRS:wkbfrwq:1,2017-08-10T15:45:00Z,30.4162,-87.8228,2.55,4.3,1111122 
NERRS,ioos:station:NOAA.NERRS:wkbfrwq:1,2017-08-10T16:45:00Z,30.4162,-87.8228,2.6,3.8,1111122 
NERRS,ioos:station:NOAA.NERRS:wkbfrwq:1,2017-08-10T17:45:00Z,30.4162,-87.8228,2.6,3.7,1111122 
NERRS,ioos:station:NOAA.NERRS:wkbfrwq:1,2017-08-10T18:45:00Z,30.4162,-87.8228,2.59,4.5,1111122 
NERRS,ioos:station:NOAA.NERRS:wkbfrwq:1,2017-08-10T19:45:00Z,30.4162,-87.8228,2.58,4.2,1111122 
NERRS,ioos:station:NOAA.NERRS:wkbfrwq:1,2017-08-10T20:45:00Z,30.4162,-87.8228,2.57,4.1,1111122 
NERRS,ioos:station:NOAA.NERRS:wkbfrwq:1,2017-08-10T21:45:00Z,30.4162,-87.8228,2.55,3.7,1111122 
NERRS,ioos:station:NOAA.NERRS:wkbfrwq:1,2017-08-10T22:45:00Z,30.4162,-87.8228,2.52,3.5,1111122 
NERRS,ioos:station:NOAA.NERRS:wkbfrwq:1,2017-08-10T23:45:00Z,30.4162,-87.8228,2.43,2.2,1111122 
NERRS,ioos:station:NOAA.NERRS:wkbfrwq:1,2017-08-11T00:45:00Z,30.4162,-87.8228,2.36,2.0,1111122 
NERRS,ioos:station:NOAA.NERRS:wkbfrwq:1,2017-08-11T02:45:00Z,30.4162,-87.8228,2.33,1.4,1111122 
NERRS,ioos:station:NOAA.NERRS:wkbfrwq:1,2017-08-11T03:45:00Z,30.4162,-87.8228,2.19,1.6,1111122 
NERRS,ioos:station:NOAA.NERRS:wkbfrwq:1,2017-08-11T04:45:00Z,30.4162,-87.8228,2.18,1.4,1111122 
NERRS,ioos:station:NOAA.NERRS:wkbfrwq:1,2017-08-11T05:45:00Z,30.4162,-87.8228,2.25,2.6,1111122 
NERRS,ioos:station:NOAA.NERRS:wkbfrwq:1,2017-08-11T06:45:00Z,30.4162,-87.8228,2.33,2.4,1111122 
NERRS,ioos:station:NOAA.NERRS:wkbfrwq:1,2017-08-11T07:45:00Z,30.4162,-87.8228,2.32,1.8,1111122 
NERRS,ioos:station:NOAA.NERRS:wkbfrwq:1,2017-08-11T08:45:00Z,30.4162,-87.8228,2.32,2.3,1111122 
NERRS,ioos:station:NOAA.NERRS:wkbfrwq:1,2017-08-11T09:45:00Z,30.4162,-87.8228,2.35,2.8,1111122 
NERRS,ioos:station:NOAA.NERRS:wkbfrwq:1,2017-08-11T10:45:00Z,30.4162,-87.8228,2.41,2.6,1111122 
NERRS,ioos:station:NOAA.NERRS:wkbfrwq:1,2017-08-11T11:45:00Z,30.4162,-87.8228,2.43,2.6,1111122 
NERRS,ioos:station:NOAA.NERRS:wkbfrwq:1,2017-08-11T12:45:00Z,30.4162,-87.8228,2.43,2.3,1111122 
NERRS,ioos:station:NOAA.NERRS:wkbfrwq:1,2017-08-11T13:45:00Z,30.4162,-87.8228,2.39,2.1,1111122 
NERRS,ioos:station:NOAA.NERRS:wkbfrwq:1,2017-08-11T14:45:00Z,30.4162,-87.8228,2.41,2.4,1111122 
NERRS,ioos:station:NOAA.NERRS:wkbfrwq:1,2017-08-11T15:45:00Z,30.4162,-87.8228,2.49,2.5,1111122 
NERRS,ioos:station:NOAA.NERRS:wkbfrwq:1,2017-08-11T16:45:00Z,30.4162,-87.8228,2.53,2.7,1111122 
NERRS,ioos:station:NOAA.NERRS:wkbfrwq:1,2017-08-11T17:45:00Z,30.4162,-87.8228,2.51,2.3,1111122 
NERRS,ioos:station:NOAA.NERRS:wkbfrwq:1,2017-08-11T18:45:00Z,30.4162,-87.8228,2.52,2.3,1111122 
NERRS,ioos:station:NOAA.NERRS:wkbfrwq:1,2017-08-11T19:45:00Z,30.4162,-87.8228,2.54,2.4,1111122 
NERRS,ioos:station:NOAA.NERRS:wkbfrwq:1,2017-08-11T20:45:00Z,30.4162,-87.8228,2.55,2.5,1111122 
NERRS,ioos:station:NOAA.NERRS:wkbfrwq:1,2017-08-11T21:45:00Z,30.4162,-87.8228,2.51,1.8,1111122 
NERRS,ioos:station:NOAA.NERRS:wkbfrwq:1,2017-08-11T22:45:00Z,30.4162,-87.8228,2.45,1.4,1111122 
NERRS,ioos:station:NOAA.NERRS:wkbfrwq:1,2017-08-11T23:45:00Z,30.4162,-87.8228,2.42,1.6,1111122 
NERRS,ioos:station:NOAA.NERRS:wkbfrwq:1,2017-08-12T00:45:00Z,30.4162,-87.8228,2.4,1.2,1111122 
NERRS,ioos:station:NOAA.NERRS:wkbfrwq:1,2017-08-12T01:45:00Z,30.4162,-87.8228,2.32,1.1,1111122 
NERRS,ioos:station:NOAA.NERRS:wkbfrwq:1,2017-08-12T02:45:00Z,30.4162,-87.8228,2.26,0.9,1111122 
NERRS,ioos:station:NOAA.NERRS:wkbfrwq:1,2017-08-12T03:45:00Z,30.4162,-87.8228,2.24,0.9,1111122 
NERRS,ioos:station:NOAA.NERRS:wkbfrwq:1,2017-08-12T04:45:00Z,30.4162,-87.8228,2.26,1.5,1111122 
NERRS,ioos:station:NOAA.NERRS:wkbfrwq:1,2017-08-12T05:45:00Z,30.4162,-87.8228,2.31,1.7,1111122 
NERRS,ioos:station:NOAA.NERRS:wkbfrwq:1,2017-08-12T06:45:00Z,30.4162,-87.8228,2.32,1.8,1111122 
NERRS,ioos:station:NOAA.NERRS:wkbfrwq:1,2017-08-12T07:45:00Z,30.4162,-87.8228,2.34,2.1,1111122 
NERRS,ioos:station:NOAA.NERRS:wkbfrwq:1,2017-08-12T08:45:00Z,30.4162,-87.8228,2.34,2.2,1111122 
NERRS,ioos:station:NOAA.NERRS:wkbfrwq:1,2017-08-12T09:45:00Z,30.4162,-87.8228,2.34,2.2,1111122 
NERRS,ioos:station:NOAA.NERRS:wkbfrwq:1,2017-08-12T10:45:00Z,30.4162,-87.8228,2.36,2.4,1111122 
NERRS,ioos:station:NOAA.NERRS:wkbfrwq:1,2017-08-12T11:45:00Z,30.4162,-87.8228,0.0,1.9,1111122 
NERRS,ioos:station:NOAA.NERRS:wkbfrwq:1,2017-08-12T12:45:00Z,30.4162,-87.8228,2.31,1.3,1111122 
NERRS,ioos:station:NOAA.NERRS:wkbfrwq:1,2017-08-12T13:45:00Z,30.4162,-87.8228,2.29,1.8,1111122 
NERRS,ioos:station:NOAA.NERRS:wkbfrwq:1,2017-08-12T14:45:00Z,30.4162,-87.8228,2.27,2.3,1111122 
NERRS,ioos:station:NOAA.NERRS:wkbfrwq:1,2017-08-12T15:45:00Z,30.4162,-87.8228,2.29,2.4,1111122 
NERRS,ioos:station:NOAA.NERRS:wkbfrwq:1,2017-08-12T16:45:00Z,30.4162,-87.8228,2.28,1.8,1111122 
NERRS,ioos:station:NOAA.NERRS:wkbfrwq:1,2017-08-12T17:45:00Z,30.4162,-87.8228,2.27,2.4,1111122 
NERRS,ioos:station:NOAA.NERRS:wkbfrwq:1,2017-08-12T18:45:00Z,30.4162,-87.8228,2.32,2.2,1111122 
NERRS,ioos:station:NOAA.NERRS:wkbfrwq:1,2017-08-12T19:45:00Z,30.4162,-87.8228,2.37,2.1,1111122 
NERRS,ioos:station:NOAA.NERRS:wkbfrwq:1,2017-08-12T20:45:00Z,30.4162,-87.8228,2.4,2.5,1111122 
NERRS,ioos:station:NOAA.NERRS:wkbfrwq:1,2017-08-12T21:45:00Z,30.4162,-87.8228,2.43,2.7,1111122 
NERRS,ioos:station:NOAA.NERRS:wkbfrwq:1,2017-08-12T22:45:00Z,30.4162,-87.8228,2.42,1.4,1111122 
NERRS,ioos:station:NOAA.NERRS:wkbfrwq:1,2017-08-12T23:45:00Z,30.4162,-87.8228,2.38,1.2,1111122 
NERRS,ioos:station:NOAA.NERRS:wkbfrwq:1,2017-08-13T00:45:00Z,30.4162,-87.8228,2.32,1.4,1111122 
NERRS,ioos:station:NOAA.NERRS:wkbfrwq:1,2017-08-13T01:45:00Z,30.4162,-87.8228,2.3,3.2,1111122 
NERRS,ioos:station:NOAA.NERRS:wkbfrwq:1,2017-08-13T02:45:00Z,30.4162,-87.8228,2.35,1.8,1111122 
NERRS,ioos:station:NOAA.NERRS:wkbfrwq:1,2017-08-13T03:45:00Z,30.4162,-87.8228,2.28,1.0,1111122 
NERRS,ioos:station:NOAA.NERRS:wkbfrwq:1,2017-08-13T04:45:00Z,30.4162,-87.8228,2.22,1.6,1111122 
NERRS,ioos:station:NOAA.NERRS:wkbfrwq:1,2017-08-13T05:45:00Z,30.4162,-87.8228,2.26,2.0,1111122 
NERRS,ioos:station:NOAA.NERRS:wkbfrwq:1,2017-08-13T06:45:00Z,30.4162,-87.8228,2.31,2.2,1111122 
NERRS,ioos:station:NOAA.NERRS:wkbfrwq:1,2017-08-13T07:45:00Z,30.4162,-87.8228,2.32,1.6,1111122 
NERRS,ioos:station:NOAA.NERRS:wkbfrwq:1,2017-08-13T08:45:00Z,30.4162,-87.8228,2.31,1.8,1111122 
NERRS,ioos:station:NOAA.NERRS:wkbfrwq:1,2017-08-13T09:45:00Z,30.4162,-87.8228,2.34,3.0,1111122 
NERRS,ioos:station:NOAA.NERRS:wkbfrwq:1,2017-08-13T10:45:00Z,30.4162,-87.8228,2.39,2.4,1111122 
NERRS,ioos:station:NOAA.NERRS:wkbfrwq:1,2017-08-13T11:45:00Z,30.4162,-87.8228,2.37,0.9,1111122 
NERRS,ioos:station:NOAA.NERRS:wkbfrwq:1,2017-08-13T12:45:00Z,30.4162,-87.8228,2.32,1.2,1111122 
NERRS,ioos:station:NOAA.NERRS:wkbfrwq:1,2017-08-13T13:45:00Z,30.4162,-87.8228,2.27,1.0,1111122 
NERRS,ioos:station:NOAA.NERRS:wkbfrwq:1,2017-08-13T14:45:00Z,30.4162,-87.8228,2.23,0.7,1111122 
NERRS,ioos:station:NOAA.NERRS:wkbfrwq:1,2017-08-13T15:45:00Z,30.4162,-87.8228,2.22,1.2,1111122 
NERRS,ioos:station:NOAA.NERRS:wkbfrwq:1,2017-08-13T16:45:00Z,30.4162,-87.8228,2.22,1.9,1111122 
NERRS,ioos:station:NOAA.NERRS:wkbfrwq:1,2017-08-13T17:45:00Z,30.4162,-87.8228,2.22,0.7,1111122 
NERRS,ioos:station:NOAA.NERRS:wkbfrwq:1,2017-08-13T18:45:00Z,30.4162,-87.8228,2.21,0.5,1111122 
NERRS,ioos:station:NOAA.NERRS:wkbfrwq:1,2017-08-13T19:45:00Z,30.4162,-87.8228,2.21,1.6,1111122 